Regional Weather Roundup
Issued by NWS

Home | Current Version | Previous Version | Graphics & Text | Print | Product List | Glossary On
Versions: 1 2 3 4 5 6 7 8 9 10 11 12 13 14 15 16 17 18 19 20 21 22 23 24 25 26 27 28 29 30 31 32 33 34 35 36 37 38 39 40 41 42 43 44 45 46 47 48 49 50
000
ASUS45 KBOI 181910
RWRID
WEATHER ROUNDUP FOR IDAHO
NATIONAL WEATHER SERVICE BOISE ID
1200 PM MST THU DEC 18 2014

NOTE: "FAIR" INDICATES FEW OR NO CLOUDS BELOW 12000 FEET
WITH NO SIGNIFICANT WEATHER AND/OR OBSTRUCTIONS TO VISIBILITY

IDZ012-014-182000-
SOUTHWEST IDAHO


CITY           SKY/WX    TMP DP  RH WIND       PRES   REMARKS
BOISE          CLOUDY    45  32  60 SE10      30.10F
CALDWELL       CLOUDY    43  28  56 SE6       30.13S
MOUNTAIN HOME  MOSUNNY   41  29  62 E18       30.11F
$$

IDZ016-017-182000-
SOUTHCENTRAL IDAHO


CITY           SKY/WX    TMP DP  RH WIND       PRES   REMARKS
BURLEY         CLOUDY    38  28  67 CALM      30.12F
JEROME         CLOUDY    35  29  78 NE7       30.13F WCI  29
TWIN FALLS     CLOUDY    45  28  51 S9        30.12F
$$

IDZ019>023-182000-
SOUTHEAST IDAHO


CITY           SKY/WX    TMP DP  RH WIND       PRES   REMARKS
IDAHO FALLS    CLOUDY    30  27  88 CALM      30.14S
POCATELLO      MOSUNNY   34  30  85 NW3       30.14F
REXBURG        CLOUDY    32  27  81 CALM      30.12F
$$

IDZ006-010-011-018-031-032-182000-
CENTRAL IDAHO MOUNTAINS


CITY           SKY/WX    TMP DP  RH WIND       PRES   REMARKS
MCCALL         LGT SNOW  32  31  96 SE8       30.03F FOG     WCI  25
HAILEY         CLOUDY    32  25  74 CALM      30.13F
STANLEY          N/A     24  18  77 N3        30.06F
SALMON         CLOUDY    25  16  68 CALM      30.11F
CHALLIS        CLOUDY    24  18  77 CALM      30.10F
$$

IDZ002-004-006-007-026-182000-
NORTHERN IDAHO


CITY           SKY/WX    TMP DP  RH WIND       PRES   REMARKS
LEWISTON       PTSUNNY   42  39  89 NE6       30.02F
LOWELL           N/A     37  35  92 CALM      30.11S
COEUR D`ALENE  CLOUDY    39  37  93 S9        29.99F WCI  33
MULLAN PASS    LGT SNOW  29  27  92 VRB5      29.93F VSB 3/4 WCI  24
$$



USA.gov is the U.S. government's official web portal to all federal, state and local government web resources and services.